| time (UTC) | temp C | wind direction | speed KPH | gust KPH | rain 1hr cm | rain 24hr cm | rain mn cm | humidity % | barometer mb |
| 20260902023800 | 28 | 196 | 3.2 | 11.3 | 0.00 | 0.00 | 0.00 | 41 | 1017.2 |
| 20260902023301 | 28 | 164 | 4.8 | 11.3 | 0.00 | 0.00 | 0.00 | 41 | 1017.1 |
| 20260902022801 | 28 | 192 | 4.8 | 11.3 | 0.00 | 0.00 | 0.00 | 40 | 1017.1 |
| 20260902022300 | 28 | 114 | 4.8 | 11.3 | 0.00 | 0.00 | 0.00 | 40 | 1016.9 |
| 20260902021800 | 28 | 138 | 4.8 | 11.3 | 0.00 | 0.00 | 0.00 | 40 | 1016.8 |
| 20260902021258 | 28 | 110 | 3.2 | 11.3 | 0.00 | 0.00 | 0.00 | 40 | 1016.8 |
| 20260902020806 | 29 | 203 | 3.2 | 11.3 | 0.00 | 0.00 | 0.00 | 39 | 1016.7 |
| 20260902020300 | 29 | 106 | 4.8 | 11.3 | 0.00 | 0.00 | 0.00 | 39 | 1016.6 |
| 20260902015804 | 29 | 148 | 3.2 | 11.3 | 0.00 | 0.00 | 0.00 | 39 | 1016.6 |
| 20260902015300 | 29 | 141 | 4.8 | 9.7 | 0.00 | 0.00 | 0.00 | 38 | 1016.6 |
| 20260902014802 | 29 | 161 | 6.4 | 11.3 | 0.00 | 0.00 | 0.00 | 38 | 1016.7 |
| 20260902014259 | 30 | 173 | 6.4 | 14.5 | 0.00 | 0.00 | 0.00 | 38 | 1016.5 |
| 20260902013759 | 30 | 148 | 6.4 | 17.7 | 0.00 | 0.00 | 0.00 | 37 | 1016.6 |
| 20260902013300 | 30 | 133 | 6.4 | 17.7 | 0.00 | 0.00 | 0.00 | 37 | 1016.6 |
| 20260902012759 | 30 | 179 | 3.2 | 16.1 | 0.00 | 0.00 | 0.00 | 37 | 1016.5 |
| 20260902012301 | 30 | 164 | 4.8 | 16.1 | 0.00 | 0.00 | 0.00 | 37 | 1016.5 |
| 20260902011759 | 30 | 172 | 4.8 | 14.5 | 0.00 | 0.00 | 0.00 | 37 | 1016.5 |
| 20260902011259 | 30 | 134 | 6.4 | 14.5 | 0.00 | 0.00 | 0.00 | 36 | 1016.5 |
| 20260902010801 | 31 | 148 | 6.4 | 14.5 | 0.00 | 0.00 | 0.00 | 35 | 1016.4 |
| 20260902010606 | 31 | 173 | 6.4 | 16.1 | 0.00 | 0.00 | 0.00 | 34 | 1016.3 |
| 20260902010126 | 31 | 171 | 8.0 | 17.7 | 0.00 | 0.00 | 0.00 | 34 | 1016.3 |
| 20260902005300 | 31 | 149 | 6.4 | 17.7 | 0.00 | 0.00 | 0.00 | 34 | 1016.2 |
| 20260902004759 | 31 | 172 | 9.7 | 29.0 | 0.00 | 0.00 | 0.00 | 33 | 1016.1 |
| 20260902004300 | 32 | 216 | 6.4 | 29.0 | 0.00 | 0.00 | 0.00 | 33 | 1016.2 |
| 20260902004025 | 32 | 210 | 9.7 | 24.1 | 0.00 | 0.00 | 0.00 | 32 | 1016.2 |
| 20260902003300 | 32 | 114 | 4.8 | 24.1 | 0.00 | 0.00 | 0.00 | 33 | 1016.2 |
| 20260902002759 | 32 | 142 | 9.7 | 20.9 | 0.00 | 0.00 | 0.00 | 33 | 1016.1 |
| 20260902002300 | 32 | 162 | 4.8 | 17.7 | 0.00 | 0.00 | 0.00 | 31 | 1016.2 |
| 20260902001803 | 32 | 135 | 8.0 | 20.9 | 0.00 | 0.00 | 0.00 | 31 | 1016.1 |
| 20260902001259 | 32 | 243 | 9.7 | 20.9 | 0.00 | 0.00 | 0.00 | 31 | 1016.1 |
| 20260902000800 | 32 | 209 | 8.0 | 17.7 | 0.00 | 0.00 | 0.00 | 30 | 1016.1 |
| 20260902000523 | 32 | 203 | 9.7 | 17.7 | 0.00 | 0.00 | 0.00 | 31 | 1015.9 |
| 20260901235801 | 33 | 228 | 8.0 | 24.1 | 0.00 | 0.00 | 0.00 | 30 | 1015.9 |
| 20260901235632 | 33 | 206 | 8.0 | 24.1 | 0.00 | 0.00 | 0.00 | 29 | 1015.9 |
| 20260901234800 | 33 | 192 | 9.7 | 24.1 | 0.00 | 0.00 | 0.00 | 29 | 1015.8 |
| 20260901234300 | 33 | 189 | 8.0 | 24.1 | 0.00 | 0.00 | 0.00 | 29 | 1015.8 |
| 20260901233800 | 33 | 213 | 8.0 | 25.7 | 0.00 | 0.00 | 0.00 | 29 | 1015.7 |
| 20260901233259 | 33 | 200 | 11.3 | 25.7 | 0.00 | 0.00 | 0.00 | 28 | 1015.6 |
| 20260901232803 | 33 | 221 | 9.7 | 22.5 | 0.00 | 0.00 | 0.00 | 29 | 1015.7 |
| 20260901232301 | 33 | 238 | 9.7 | 22.5 | 0.00 | 0.00 | 0.00 | 28 | 1015.6 |
| 20260901231803 | 33 | 231 | 9.7 | 22.5 | 0.00 | 0.00 | 0.00 | 29 | 1015.5 |
| 20260901231300 | 34 | 120 | 9.7 | 19.3 | 0.00 | 0.00 | 0.00 | 27 | 1015.5 |
| 20260901230759 | 34 | 85 | 9.7 | 20.9 | 0.00 | 0.00 | 0.00 | 28 | 1015.6 |
| 20260901230258 | 34 | 107 | 4.8 | 20.9 | 0.00 | 0.00 | 0.00 | 28 | 1015.6 |
| 20260901230019 | 34 | 195 | 6.4 | 22.5 | 0.00 | 0.00 | 0.00 | 28 | 1015.7 |
| 20260901225919 | 34 | 233 | 8.0 | 17.7 | 0.00 | 0.00 | 0.00 | 29 | 1015.7 |
| 20260901224759 | 34 | 141 | 11.3 | 29.0 | 0.00 | 0.00 | 0.00 | 27 | 1015.7 |
| 20260901224259 | 35 | 175 | 14.5 | 29.0 | 0.00 | 0.00 | 0.00 | 27 | 1015.7 |
| 20260901223759 | 35 | 168 | 9.7 | 25.7 | 0.00 | 0.00 | 0.00 | 28 | 1015.7 |
| 20260901223259 | 35 | 171 | 6.4 | 19.3 | 0.00 | 0.00 | 0.00 | 28 | 1015.8 |
| 20260901222803 | 35 | 179 | 6.4 | 19.3 | 0.00 | 0.00 | 0.00 | 29 | 1015.8 |
| 20260901222633 | 35 | 197 | 6.4 | 19.3 | 0.00 | 0.00 | 0.00 | 30 | 1015.9 |
| 20260901221759 | 35 | 61 | 9.7 | 25.7 | 0.00 | 0.00 | 0.00 | 28 | 1015.9 |
| 20260901221258 | 35 | 247 | 11.3 | 25.7 | 0.00 | 0.00 | 0.00 | 28 | 1015.9 |
| 20260901220801 | 34 | 158 | 9.7 | 29.0 | 0.00 | 0.00 | 0.00 | 30 | 1016.2 |
| 20260901220259 | 33 | 223 | 6.4 | 29.0 | 0.00 | 0.00 | 0.00 | 30 | 1016.1 |
| 20260901215800 | 33 | 195 | 14.5 | 25.7 | 0.00 | 0.00 | 0.00 | 30 | 1016.2 |
| 20260901215340 | 35 | 199 | 12.9 | 20.9 | 0.00 | 0.00 | 0.00 | 30 | 1016.2 |
| 20260901215322 | 34 | 207 | 9.7 | 20.9 | 0.00 | 0.00 | 0.00 | 29 | 1016.3 |
| 20260901213801 | 35 | 216 | 11.3 | 25.7 | 0.00 | 0.00 | 0.00 | 30 | 1016.3 |
| 20260901213505 | 35 | 130 | 3.2 | 30.6 | 0.00 | 0.00 | 0.00 | 29 | 1016.6 |
| 20260901213417 | 35 | 142 | 8.0 | 30.6 | 0.00 | 0.00 | 0.00 | 30 | 1016.4 |
| 20260901212300 | 35 | 145 | 11.3 | 24.1 | 0.00 | 0.00 | 0.00 | 31 | 1016.6 |
| 20260901211758 | 35 | 166 | 3.2 | 22.5 | 0.00 | 0.00 | 0.00 | 30 | 1016.7 |
| 20260901211300 | 35 | 107 | 11.3 | 22.5 | 0.00 | 0.00 | 0.00 | 31 | 1016.7 |
| 20260901211022 | 34 | 104 | 9.7 | 24.1 | 0.00 | 0.00 | 0.00 | 31 | 1016.7 |
| 20260901210804 | 34 | 104 | 9.7 | 24.1 | 0.00 | 0.00 | 0.00 | 31 | 1016.7 |
| 20260901210259 | 35 | 117 | 8.0 | 24.1 | 0.00 | 0.00 | 0.00 | 32 | 1016.9 |
| 20260901205800 | 35 | 180 | 14.5 | 24.1 | 0.00 | 0.00 | 0.00 | 32 | 1016.9 |
| 20260901205259 | 35 | 155 | 6.4 | 24.1 | 0.00 | 0.00 | 0.00 | 31 | 1017.1 |
| 20260901204759 | 35 | 147 | 12.9 | 22.5 | 0.00 | 0.00 | 0.00 | 31 | 1017.2 |
| 20260901204259 | 35 | 147 | 8.0 | 20.9 | 0.00 | 0.00 | 0.00 | 33 | 1017.2 |
| 20260901204130 | 34 | 137 | 6.4 | 25.7 | 0.00 | 0.00 | 0.00 | 33 | 1017.3 |
| 20260901203300 | 32 | 103 | 12.9 | 25.7 | 0.00 | 0.00 | 0.00 | 33 | 1017.4 |
| 20260901202759 | 33 | 231 | 8.0 | 22.5 | 0.00 | 0.00 | 0.00 | 33 | 1017.5 |
| 20260901202300 | 33 | 100 | 6.4 | 20.9 | 0.00 | 0.00 | 0.00 | 33 | 1017.6 |
| 20260901201800 | 33 | 121 | 6.4 | 20.9 | 0.00 | 0.00 | 0.00 | 33 | 1017.7 |
| 20260901201301 | 35 | 193 | 9.7 | 22.5 | 0.00 | 0.00 | 0.00 | 32 | 1017.7 |
| 20260901200800 | 34 | 197 | 9.7 | 30.6 | 0.00 | 0.00 | 0.00 | 32 | 1018.0 |
| 20260901200259 | 34 | 193 | 12.9 | 30.6 | 0.00 | 0.00 | 0.00 | 34 | 1017.8 |
| 20260901195801 | 33 | 190 | 8.0 | 24.1 | 0.00 | 0.00 | 0.00 | 34 | 1018.1 |
| 20260901195642 | 33 | 109 | 8.0 | 24.1 | 0.00 | 0.00 | 0.00 | 33 | 1018.1 |
| 20260901194759 | 33 | 161 | 8.0 | 20.9 | 0.00 | 0.00 | 0.00 | 33 | 1018.1 |
| 20260901194301 | 34 | 197 | 11.3 | 22.5 | 0.00 | 0.00 | 0.00 | 32 | 1018.2 |
| 20260901193759 | 35 | 130 | 9.7 | 22.5 | 0.00 | 0.00 | 0.00 | 33 | 1018.2 |
| 20260901193300 | 33 | 209 | 8.0 | 17.7 | 0.00 | 0.00 | 0.00 | 34 | 1018.2 |
| 20260901193014 | 33 | 200 | 8.0 | 20.9 | 0.00 | 0.00 | 0.00 | 36 | 1018.3 |
| 20260901192915 | 32 | 116 | 6.4 | 17.7 | 0.00 | 0.00 | 0.00 | 34 | 1018.4 |
| 20260901192108 | 33 | 219 | 9.7 | 25.7 | 0.00 | 0.00 | 0.00 | 34 | 1018.5 |
| 20260901191644 | 33 | 114 | 8.0 | 25.7 | 0.00 | 0.00 | 0.00 | 33 | 1018.5 |
| 20260901190800 | 34 | 109 | 9.7 | 25.7 | 0.00 | 0.00 | 0.00 | 32 | 1018.4 |
| 20260901190300 | 34 | 209 | 9.7 | 25.7 | 0.00 | 0.00 | 0.00 | 33 | 1018.5 |
| 20260901185807 | 34 | 166 | 8.0 | 20.9 | 0.00 | 0.00 | 0.00 | 33 | 1018.5 |
| 20260901185300 | 33 | 87 | 6.4 | 22.5 | 0.00 | 0.00 | 0.00 | 33 | 1018.5 |
| 20260901184759 | 33 | 193 | 11.3 | 22.5 | 0.00 | 0.00 | 0.00 | 35 | 1018.7 |
| 20260901184301 | 33 | 124 | 11.3 | 20.9 | 0.00 | 0.00 | 0.00 | 34 | 1018.7 |
| 20260901184138 | 34 | 140 | 6.4 | 19.3 | 0.00 | 0.00 | 0.00 | 33 | 1018.8 |
| 20260901183300 | 34 | 178 | 6.4 | 20.9 | 0.00 | 0.00 | 0.00 | 33 | 1018.8 |
| 20260901183154 | 33 | 230 | 6.4 | 25.7 | 0.00 | 0.00 | 0.00 | 36 | 1019.1 |
| 20260901182300 | 33 | 144 | 12.9 | 25.7 | 0.00 | 0.00 | 0.00 | 34 | 1019.1 |
| 20260901181759 | 33 | 185 | 4.8 | 22.5 | 0.00 | 0.00 | 0.00 | 34 | 1019.1 |
| 20260901181259 | 33 | 158 | 9.7 | 20.9 | 0.00 | 0.00 | 0.00 | 36 | 1019.2 |
| 20260901180807 | 32 | 196 | 6.4 | 24.1 | 0.00 | 0.00 | 0.00 | 36 | 1019.2 |
| 20260901180304 | 33 | 200 | 8.0 | 24.1 | 0.00 | 0.00 | 0.00 | 37 | 1019.3 |
| 20260901175800 | 32 | 230 | 4.8 | 19.3 | 0.00 | 0.00 | 0.00 | 36 | 1019.4 |
| 20260901175300 | 31 | 186 | 8.0 | 20.9 | 0.00 | 0.00 | 0.00 | 37 | 1019.4 |
| 20260901174759 | 32 | 145 | 9.7 | 20.9 | 0.00 | 0.00 | 0.00 | 35 | 1019.4 |
| 20260901174259 | 33 | 203 | 9.7 | 20.9 | 0.00 | 0.00 | 0.00 | 34 | 1019.3 |
| 20260901173759 | 33 | 195 | 11.3 | 20.9 | 0.00 | 0.00 | 0.00 | 36 | 1019.5 |
| 20260901173259 | 33 | 97 | 8.0 | 22.5 | 0.00 | 0.00 | 0.00 | 37 | 1019.5 |
| 20260901172800 | 33 | 176 | 8.0 | 22.5 | 0.00 | 0.00 | 0.00 | 36 | 1019.5 |
| 20260901172257 | 32 | 202 | 9.7 | 22.5 | 0.00 | 0.00 | 0.00 | 39 | 1019.5 |
| 20260901171758 | 31 | 204 | 6.4 | 22.5 | 0.00 | 0.00 | 0.00 | 40 | 1019.6 |
| 20260901171258 | 31 | 196 | 11.3 | 19.3 | 0.00 | 0.00 | 0.00 | 40 | 1019.7 |
| 20260901171147 | 31 | 252 | 8.0 | 19.3 | 0.00 | 0.00 | 0.00 | 41 | 1019.7 |
| 20260901170258 | 31 | 206 | 8.0 | 20.9 | 0.00 | 0.00 | 0.00 | 40 | 1019.6 |
| 20260901165804 | 31 | 206 | 8.0 | 20.9 | 0.00 | 0.00 | 0.00 | 40 | 1019.6 |
| 20260901165300 | 32 | 193 | 9.7 | 20.9 | 0.00 | 0.00 | 0.00 | 41 | 1019.6 |
| 20260901165142 | 32 | 233 | 9.7 | 19.3 | 0.00 | 0.00 | 0.00 | 41 | 1019.6 |
| 20260901164257 | 31 | 252 | 9.7 | 19.3 | 0.00 | 0.00 | 0.00 | 43 | 1019.6 |
| 20260901163759 | 32 | 154 | 8.0 | 19.3 | 0.00 | 0.00 | 0.00 | 42 | 1019.6 |
| 20260901163259 | 31 | 255 | 11.3 | 19.3 | 0.00 | 0.00 | 0.00 | 46 | 1019.6 |
| 20260901162759 | 31 | 254 | 9.7 | 17.7 | 0.00 | 0.00 | 0.00 | 44 | 1019.6 |
| 20260901162258 | 31 | 259 | 6.4 | 20.9 | 0.00 | 0.00 | 0.00 | 45 | 1019.6 |
| 20260901162132 | 31 | 214 | 9.7 | 20.9 | 0.00 | 0.00 | 0.00 | 46 | 1019.5 |
| 20260901161301 | 31 | 216 | 9.7 | 20.9 | 0.00 | 0.00 | 0.00 | 47 | 1019.6 |
| 20260901160759 | 30 | 243 | 9.7 | 25.7 | 0.00 | 0.00 | 0.00 | 49 | 1019.6 |
| 20260901160258 | 30 | 230 | 9.7 | 25.7 | 0.00 | 0.00 | 0.00 | 50 | 1019.5 |
| 20260901155800 | 30 | 217 | 11.3 | 20.9 | 0.00 | 0.00 | 0.00 | 49 | 1019.5 |
| 20260901155300 | 30 | 197 | 11.3 | 24.1 | 0.00 | 0.00 | 0.00 | 50 | 1019.6 |
| 20260901154801 | 30 | 186 | 11.3 | 24.1 | 0.00 | 0.00 | 0.00 | 51 | 1019.6 |
| 20260901154643 | 30 | 203 | 14.5 | 24.1 | 0.00 | 0.00 | 0.00 | 50 | 1019.6 |
| 20260901153802 | 29 | 183 | 9.7 | 22.5 | 0.00 | 0.00 | 0.00 | 51 | 1019.6 |
| 20260901153300 | 29 | 248 | 12.9 | 24.1 | 0.00 | 0.00 | 0.00 | 52 | 1019.6 |
| 20260901152815 | 28 | 219 | 12.9 | 24.1 | 0.00 | 0.00 | 0.00 | 52 | 1019.6 |
| 20260901152305 | 28 | 142 | 9.7 | 22.5 | 0.00 | 0.00 | 0.00 | 53 | 1019.6 |
| 20260901152021 | 28 | 219 | 12.9 | 25.7 | 0.00 | 0.00 | 0.00 | 52 | 1019.6 |
| 20260901151259 | 28 | 248 | 12.9 | 25.7 | 0.00 | 0.00 | 0.00 | 52 | 1019.7 |
| 20260901151234 | 28 | 213 | 9.7 | 20.9 | 0.00 | 0.00 | 0.00 | 53 | 1019.7 |
| 20260901151227 | 28 | 186 | 12.9 | 24.1 | 0.00 | 0.00 | 0.00 | 54 | 1019.8 |
| 20260901151214 | 28 | 216 | 9.7 | 22.5 | 0.00 | 0.00 | 0.00 | 53 | 1019.7 |
| 20260901151207 | 28 | 168 | 12.9 | 24.1 | 0.00 | 0.00 | 0.00 | 53 | 1019.8 |
| 20260901150954 | 28 | 213 | 9.7 | 20.9 | 0.00 | 0.00 | 0.00 | 53 | 1019.7 |
| 20260901144758 | 27 | 216 | 9.7 | 20.9 | 0.00 | 0.00 | 0.00 | 54 | 1019.8 |
| 20260901144301 | 27 | 224 | 11.3 | 20.9 | 0.00 | 0.00 | 0.00 | 56 | 1019.7 |
| 20260901143800 | 27 | 180 | 9.7 | 22.5 | 0.00 | 0.00 | 0.00 | 55 | 1019.7 |
| 20260901143301 | 27 | 230 | 8.0 | 22.5 | 0.00 | 0.00 | 0.00 | 56 | 1019.7 |
| 20260901142801 | 26 | 185 | 8.0 | 14.5 | 0.00 | 0.00 | 0.00 | 57 | 1019.7 |
| 20260901142305 | 26 | 213 | 4.8 | 16.1 | 0.00 | 0.00 | 0.00 | 57 | 1019.8 |
| 20260901141801 | 26 | 200 | 6.4 | 16.1 | 0.00 | 0.00 | 0.00 | 57 | 1019.7 |
| 20260901141715 | 26 | 175 | 4.8 | 14.5 | 0.00 | 0.00 | 0.00 | 57 | 1019.7 |
| 20260901140805 | 25 | 172 | 3.2 | 17.7 | 0.00 | 0.00 | 0.00 | 57 | 1019.8 |
| 20260901140538 | 25 | 193 | 6.4 | 17.7 | 0.00 | 0.00 | 0.00 | 57 | 1020.0 |
| 20260901140314 | 25 | 193 | 6.4 | 17.7 | 0.00 | 0.00 | 0.00 | 57 | 1020.0 |
| 20260901140135 | 25 | 209 | 6.4 | 19.3 | 0.00 | 0.00 | 0.00 | 57 | 1019.8 |
| 20260901135305 | 25 | 221 | 8.0 | 19.3 | 0.00 | 0.00 | 0.00 | 58 | 1019.8 |
| 20260901134759 | 25 | 227 | 6.4 | 14.5 | 0.00 | 0.00 | 0.00 | 58 | 1019.8 |
| 20260901134301 | 25 | 157 | 4.8 | 16.1 | 0.00 | 0.00 | 0.00 | 58 | 1020.0 |
| 20260901133759 | 25 | 228 | 4.8 | 16.1 | 0.00 | 0.00 | 0.00 | 60 | 1020.0 |
| 20260901133301 | 24 | 186 | 4.8 | 11.3 | 0.00 | 0.00 | 0.00 | 59 | 1019.8 |
| 20260901132800 | 24 | 175 | 6.4 | 11.3 | 0.00 | 0.00 | 0.00 | 60 | 1019.8 |
| 20260901132307 | 23 | 206 | 3.2 | 9.7 | 0.00 | 0.00 | 0.00 | 60 | 1019.8 |
| 20260901131759 | 23 | 175 | 4.8 | 14.5 | 0.00 | 0.00 | 0.00 | 60 | 1020.0 |
| 20260901131300 | 23 | 155 | 6.4 | 14.5 | 0.00 | 0.00 | 0.00 | 61 | 1020.0 |
| 20260901130801 | 23 | 193 | 6.4 | 16.1 | 0.00 | 0.00 | 0.00 | 60 | 1019.8 |
| 20260901130301 | 23 | 178 | 6.4 | 16.1 | 0.00 | 0.00 | 0.00 | 60 | 1019.7 |
| 20260901125758 | 23 | 159 | 6.4 | 19.3 | 0.00 | 0.00 | 0.00 | 60 | 1019.7 |
| 20260901125257 | 23 | 228 | 8.0 | 19.3 | 0.00 | 0.00 | 0.00 | 59 | 1019.6 |
| 20260901124800 | 23 | 169 | 4.8 | 14.5 | 0.00 | 0.00 | 0.00 | 59 | 1019.6 |
| 20260901124300 | 23 | 145 | 6.4 | 14.5 | 0.00 | 0.00 | 0.00 | 59 | 1019.6 |
| 20260901123758 | 23 | 166 | 6.4 | 20.9 | 0.00 | 0.00 | 0.00 | 59 | 1019.5 |
| 20260901123258 | 23 | 202 | 8.0 | 20.9 | 0.00 | 0.00 | 0.00 | 59 | 1019.5 |
| 20260901122757 | 23 | 168 | 6.4 | 16.1 | 0.00 | 0.00 | 0.00 | 58 | 1019.4 |
| 20260901122258 | 23 | 172 | 4.8 | 11.3 | 0.00 | 0.00 | 0.00 | 58 | 1019.3 |
| 20260901121758 | 23 | 182 | 4.8 | 14.5 | 0.00 | 0.00 | 0.00 | 58 | 1019.3 |
| 20260901121636 | 23 | 195 | 8.0 | 17.7 | 0.00 | 0.00 | 0.00 | 58 | 1019.3 |
| 20260901120758 | 23 | 227 | 6.4 | 20.9 | 0.00 | 0.00 | 0.00 | 57 | 1019.3 |
| 20260901120533 | 23 | 154 | 6.4 | 14.5 | 0.00 | 0.00 | 0.00 | 57 | 1019.3 |
| 20260901120427 | 23 | 157 | 6.4 | 20.9 | 0.00 | 0.00 | 0.00 | 57 | 1019.2 |
| 20260901115258 | 23 | 138 | 4.8 | 19.3 | 0.00 | 0.00 | 0.00 | 57 | 1019.1 |
| 20260901114758 | 23 | 226 | 6.4 | 19.3 | 0.00 | 0.00 | 0.00 | 57 | 1019.0 |
| 20260901114259 | 23 | 183 | 8.0 | 17.7 | 0.00 | 0.00 | 0.00 | 57 | 1019.1 |
| 20260901113759 | 23 | 173 | 6.4 | 17.7 | 0.00 | 0.00 | 0.00 | 57 | 1019.2 |
| 20260901113300 | 23 | 168 | 6.4 | 14.5 | 0.00 | 0.00 | 0.00 | 57 | 1019.1 |
| 20260901112759 | 23 | 171 | 6.4 | 11.3 | 0.00 | 0.00 | 0.00 | 57 | 1019.2 |
| 20260901112301 | 23 | 161 | 4.8 | 8.0 | 0.00 | 0.00 | 0.00 | 57 | 1019.2 |
| 20260901111758 | 23 | 169 | 1.6 | 6.4 | 0.00 | 0.00 | 0.00 | 57 | 1019.1 |
| 20260901111259 | 23 | 179 | 1.6 | 8.0 | 0.00 | 0.00 | 0.00 | 57 | 1019.3 |
| 20260901111128 | 23 | 206 | 4.8 | 8.0 | 0.00 | 0.00 | 0.00 | 56 | 1019.2 |
| 20260901110302 | 23 | 172 | 3.2 | 8.0 | 0.00 | 0.00 | 0.00 | 57 | 1019.1 |
| 20260901105758 | 23 | 130 | 1.6 | 8.0 | 0.00 | 0.00 | 0.00 | 56 | 1019.1 |
| 20260901105259 | 23 | 162 | 1.6 | 8.0 | 0.00 | 0.00 | 0.00 | 56 | 1019.1 |
| 20260901104758 | 23 | 134 | 3.2 | 8.0 | 0.00 | 0.00 | 0.00 | 56 | 1019.0 |
| 20260901104301 | 23 | 135 | 3.2 | 8.0 | 0.00 | 0.00 | 0.00 | 56 | 1019.0 |
| 20260901104125 | 23 | 144 | 4.8 | 11.3 | 0.00 | 0.00 | 0.00 | 56 | 1018.8 |
| 20260901103258 | 23 | 140 | 6.4 | 11.3 | 0.00 | 0.00 | 0.00 | 56 | 1018.8 |
| 20260901102802 | 23 | 166 | 4.8 | 8.0 | 0.00 | 0.00 | 0.00 | 56 | 1019.0 |
| 20260901102258 | 23 | 210 | 3.2 | 8.0 | 0.00 | 0.00 | 0.00 | 56 | 1019.0 |
| 20260901101758 | 23 | 165 | 3.2 | 8.0 | 0.00 | 0.00 | 0.00 | 55 | 1018.8 |
| 20260901101619 | 23 | 166 | 3.2 | 9.7 | 0.00 | 0.00 | 0.00 | 55 | 1018.8 |
| 20260901100758 | 23 | 203 | 3.2 | 9.7 | 0.00 | 0.00 | 0.00 | 55 | 1018.8 |
| 20260901100506 | 23 | 173 | 4.8 | 9.7 | 0.00 | 0.00 | 0.00 | 54 | 1018.7 |
| 20260901100416 | 23 | 197 | 4.8 | 8.0 | 0.00 | 0.00 | 0.00 | 54 | 1018.8 |
| 20260901095259 | 23 | 148 | 3.2 | 9.7 | 0.00 | 0.00 | 0.00 | 54 | 1018.8 |
| 20260901094758 | 23 | 166 | 1.6 | 9.7 | 0.00 | 0.00 | 0.00 | 53 | 1018.8 |
| 20260901094258 | 23 | 166 | 3.2 | 16.1 | 0.00 | 0.00 | 0.00 | 52 | 1019.0 |
| 20260901093757 | 23 | 203 | 6.4 | 16.1 | 0.00 | 0.00 | 0.00 | 52 | 1019.0 |
| 20260901093259 | 23 | 182 | 6.4 | 16.1 | 0.00 | 0.00 | 0.00 | 52 | 1019.0 |
| 20260901092759 | 24 | 179 | 6.4 | 16.1 | 0.00 | 0.00 | 0.00 | 51 | 1019.0 |
| 20260901092300 | 24 | 189 | 6.4 | 16.1 | 0.00 | 0.00 | 0.00 | 51 | 1019.0 |
| 20260901091758 | 25 | 204 | 6.4 | 16.1 | 0.00 | 0.00 | 0.00 | 51 | 1019.0 |
| 20260901091258 | 25 | 124 | 8.0 | 14.5 | 0.00 | 0.00 | 0.00 | 50 | 1018.8 |
| 20260901090758 | 25 | 152 | 6.4 | 14.5 | 0.00 | 0.00 | 0.00 | 50 | 1019.0 |
| 20260901090258 | 24 | 190 | 6.4 | 14.5 | 0.00 | 0.00 | 0.00 | 51 | 1019.0 |
| 20260901090124 | 24 | 109 | 4.8 | 11.3 | 0.00 | 0.00 | 0.00 | 51 | 1019.0 |
| 20260901085258 | 24 | 185 | 6.4 | 11.3 | 0.00 | 0.00 | 0.00 | 51 | 1019.0 |
| 20260901084758 | 24 | 166 | 6.4 | 14.5 | 0.00 | 0.00 | 0.00 | 50 | 1018.8 |
| 20260901084259 | 24 | 179 | 4.8 | 16.1 | 0.00 | 0.00 | 0.00 | 50 | 1018.8 |
| 20260901083758 | 24 | 102 | 6.4 | 16.1 | 0.00 | 0.00 | 0.00 | 50 | 1018.7 |
| 20260901083624 | 24 | 128 | 4.8 | 17.7 | 0.00 | 0.00 | 0.00 | 50 | 1018.7 |
| 20260901082803 | 25 | 124 | 6.4 | 17.7 | 0.00 | 0.00 | 0.00 | 50 | 1018.8 |
| 20260901082259 | 25 | 148 | 6.4 | 16.1 | 0.00 | 0.00 | 0.00 | 49 | 1018.8 |
| 20260901081758 | 25 | 176 | 6.4 | 16.1 | 0.00 | 0.00 | 0.00 | 48 | 1018.8 |
| 20260901081300 | 25 | 182 | 4.8 | 17.7 | 0.00 | 0.00 | 0.00 | 48 | 1018.7 |
| 20260901080800 | 25 | 140 | 9.7 | 19.3 | 0.00 | 0.00 | 0.00 | 48 | 1018.7 |
| 20260901080530 | 25 | 130 | 6.4 | 19.3 | 0.00 | 0.00 | 0.00 | 48 | 1018.7 |
| 20260901080514 | 25 | 185 | 8.0 | 19.3 | 0.00 | 0.00 | 0.00 | 48 | 1018.7 |
| 20260901075258 | 25 | 168 | 6.4 | 16.1 | 0.00 | 0.00 | 0.00 | 48 | 1018.7 |
| 20260901074759 | 25 | 189 | 6.4 | 16.1 | 0.00 | 0.00 | 0.00 | 49 | 1018.7 |
| 20260901074259 | 25 | 157 | 8.0 | 17.7 | 0.00 | 0.00 | 0.00 | 48 | 1018.7 |
| 20260901073758 | 25 | 182 | 8.0 | 17.7 | 0.00 | 0.00 | 0.00 | 49 | 1018.8 |
| 20260901073258 | 25 | 123 | 8.0 | 16.1 | 0.00 | 0.00 | 0.00 | 49 | 1018.7 |
| 20260901073127 | 25 | 75 | 6.4 | 11.3 | 0.00 | 0.00 | 0.00 | 50 | 1018.8 |
| 20260901072259 | 25 | 110 | 4.8 | 11.3 | 0.00 | 0.00 | 0.00 | 50 | 1018.8 |
| 20260901072141 | 25 | 178 | 3.2 | 9.7 | 0.00 | 0.00 | 0.00 | 50 | 1018.8 |
| 20260901071301 | 25 | 161 | 1.6 | 6.4 | 0.00 | 0.00 | 0.00 | 51 | 1018.8 |
| 20260901070803 | 24 | 102 | 3.2 | 6.4 | 0.00 | 0.00 | 0.00 | 52 | 1019.0 |
| 20260901070303 | 24 | 149 | 1.6 | 4.8 | 0.00 | 0.00 | 0.00 | 54 | 1019.0 |
| 20260901065758 | 23 | 186 | 0.0 | 6.4 | 0.00 | 0.00 | 0.00 | 55 | 1019.1 |
| 20260901065259 | 23 | 155 | 1.6 | 6.4 | 0.00 | 0.00 | 0.00 | 56 | 1019.1 |
| 20260901064759 | 23 | 149 | 0.0 | 0.0 | 0.00 | 0.00 | 0.00 | 55 | 1019.1 |
| 20260901064259 | 23 | 134 | 0.0 | 0.0 | 0.00 | 0.00 | 0.00 | 57 | 1019.2 |
| 20260901063758 | 23 | 183 | 0.0 | 0.0 | 0.00 | 0.00 | 0.00 | 59 | 1019.1 |
| 20260901063257 | 23 | 134 | 0.0 | 0.0 | 0.00 | 0.00 | 0.00 | 57 | 1019.1 |
| 20260901062758 | 23 | 162 | 0.0 | 0.0 | 0.00 | 0.00 | 0.00 | 56 | 1019.2 |
| 20260901062527 | 23 | 176 | 0.0 | 0.0 | 0.00 | 0.00 | 0.00 | 57 | 1019.1 |
| 20260901062300 | 23 | 176 | 0.0 | 0.0 | 0.00 | 0.00 | 0.00 | 57 | 1019.1 |
| 20260901061759 | 24 | 145 | 0.0 | 4.8 | 0.00 | 0.00 | 0.00 | 54 | 1019.2 |
| 20260901061258 | 24 | 123 | 1.6 | 4.8 | 0.00 | 0.00 | 0.00 | 54 | 1019.1 |
| 20260901060759 | 24 | 128 | 1.6 | 4.8 | 0.00 | 0.00 | 0.00 | 54 | 1019.1 |
| 20260901060627 | 24 | 128 | 1.6 | 4.8 | 0.00 | 0.00 | 0.00 | 54 | 1019.1 |
| 20260901055803 | 24 | 117 | 1.6 | 3.2 | 0.00 | 0.00 | 0.00 | 54 | 1019.1 |
| 20260901055633 | 24 | 123 | 0.0 | 6.4 | 0.00 | 0.00 | 0.00 | 54 | 1019.1 |
| 20260901054758 | 25 | 141 | 1.6 | 6.4 | 0.00 | 0.00 | 0.00 | 53 | 1019.0 |
| 20260901054257 | 25 | 128 | 0.0 | 6.4 | 0.00 | 0.00 | 0.00 | 53 | 1019.0 |
| 20260901053757 | 25 | 154 | 1.6 | 6.4 | 0.00 | 0.00 | 0.00 | 52 | 1019.0 |
| 20260901053639 | 25 | 127 | 0.0 | 3.2 | 0.00 | 0.00 | 0.00 | 53 | 1019.0 |
| 20260901052757 | 25 | 183 | 0.0 | 4.8 | 0.00 | 0.00 | 0.00 | 53 | 1019.0 |
| 20260901052259 | 25 | 182 | 0.0 | 6.4 | 0.00 | 0.00 | 0.00 | 53 | 1019.0 |
| 20260901051757 | 25 | 116 | 3.2 | 6.4 | 0.00 | 0.00 | 0.00 | 52 | 1019.0 |
| 20260901051636 | 25 | 109 | 3.2 | 6.4 | 0.00 | 0.00 | 0.00 | 51 | 1018.8 |
| 20260901050757 | 26 | 113 | 3.2 | 6.4 | 0.00 | 0.00 | 0.00 | 50 | 1018.8 |
| 20260901050259 | 26 | 118 | 0.0 | 8.0 | 0.00 | 0.00 | 0.00 | 50 | 1019.0 |
| 20260901045759 | 26 | 155 | 3.2 | 8.0 | 0.00 | 0.00 | 0.00 | 50 | 1018.8 |
| 20260901045637 | 26 | 103 | 4.8 | 8.0 | 0.00 | 0.00 | 0.00 | 49 | 1018.8 |
| 20260901044757 | 26 | 138 | 4.8 | 11.3 | 0.00 | 0.00 | 0.00 | 49 | 1018.8 |
| 20260901044654 | 26 | 154 | 4.8 | 11.3 | 0.00 | 0.00 | 0.00 | 49 | 1018.7 |
| 20260901043759 | 26 | 113 | 4.8 | 8.0 | 0.00 | 0.00 | 0.00 | 49 | 1018.7 |
| 20260901043257 | 26 | 125 | 1.6 | 9.7 | 0.00 | 0.00 | 0.00 | 49 | 1018.7 |
| 20260901042802 | 26 | 125 | 4.8 | 9.7 | 0.00 | 0.00 | 0.00 | 49 | 1018.7 |
| 20260901042258 | 26 | 120 | 3.2 | 8.0 | 0.00 | 0.00 | 0.00 | 49 | 1018.6 |
| 20260901041757 | 26 | 123 | 3.2 | 8.0 | 0.00 | 0.00 | 0.00 | 49 | 1018.7 |
| 20260901041259 | 26 | 147 | 4.8 | 8.0 | 0.00 | 0.00 | 0.00 | 49 | 1018.6 |
| 20260901040758 | 26 | 109 | 4.8 | 8.0 | 0.00 | 0.00 | 0.00 | 48 | 1018.5 |
| 20260901040301 | 26 | 109 | 6.4 | 9.7 | 0.00 | 0.00 | 0.00 | 48 | 1018.5 |
| 20260901035757 | 27 | 159 | 4.8 | 9.7 | 0.00 | 0.00 | 0.00 | 47 | 1018.4 |
| 20260901035305 | 27 | 110 | 4.8 | 14.5 | 0.00 | 0.00 | 0.00 | 47 | 1018.4 |
| 20260901034758 | 27 | 114 | 4.8 | 14.5 | 0.00 | 0.00 | 0.00 | 46 | 1018.4 |
| 20260901034257 | 27 | 117 | 6.4 | 14.5 | 0.00 | 0.00 | 0.00 | 46 | 1018.2 |
| 20260901033758 | 27 | 130 | 3.2 | 9.7 | 0.00 | 0.00 | 0.00 | 46 | 1018.2 |
| 20260901033450 | 27 | 124 | 3.2 | 9.7 | 0.00 | 0.00 | 0.00 | 45 | 1018.2 |
| 20260901033405 | 27 | 123 | 3.2 | 9.7 | 0.00 | 0.00 | 0.00 | 45 | 1018.2 |
| 20260901032258 | 27 | 104 | 4.8 | 9.7 | 0.00 | 0.00 | 0.00 | 45 | 1018.0 |
| 20260901031759 | 27 | 121 | 4.8 | 9.7 | 0.00 | 0.00 | 0.00 | 45 | 1018.0 |
| 20260901031258 | 27 | 120 | 6.4 | 9.7 | 0.00 | 0.00 | 0.00 | 45 | 1017.8 |
| 20260901030758 | 27 | 154 | 4.8 | 9.7 | 0.00 | 0.00 | 0.00 | 45 | 1017.7 |
| 20260901030259 | 27 | 109 | 4.8 | 9.7 | 0.00 | 0.00 | 0.00 | 44 | 1017.6 |
| 20260901025802 | 28 | 97 | 6.4 | 9.7 | 0.00 | 0.00 | 0.00 | 43 | 1017.5 |
| 20260901025257 | 28 | 107 | 3.2 | 8.0 | 0.00 | 0.00 | 0.00 | 43 | 1017.5 |
| 20260901024757 | 28 | 109 | 4.8 | 11.3 | 0.00 | 0.00 | 0.00 | 43 | 1017.3 |
| 20260901024257 | 27 | 130 | 4.8 | 11.3 | 0.00 | 0.00 | 0.00 | 43 | 1017.2 |